When you browse on this site, cookies collect data to enhance your experience and personalize the content and advertising you see.
Visit our Privacy Policy to learn more. By continuing to use the site, you agree to this use of cookies and data.
  • în România
  • Lista ţărilor
  • Pe 7 zile
  • Temperatura apei
  • Hartă satelitară
  • Meteo pe hartă
  • Widget-uri
  • user-avatar
    Intrare

    Meteo pe oră la Ishimovo

    Astăzi, 21 Februarie, Joi

    Timp Temperatura Precipitaţii Vânt Presiune Umiditate
    00:00 -16°C° 0 mm 6 m/s 747 mmHg 88%
    01:00 -16°C° 0 mm 6 m/s 747 mmHg 91%
    02:00 -15°C° 0 mm 6 m/s 747 mmHg 91%
    03:00 -15°C° 0 mm 6 m/s 747 mmHg 91%
    04:00 -14°C° 0 mm 6 m/s 747 mmHg 91%
    05:00 -12°C° 0 mm 6 m/s 747 mmHg 91%
    06:00 -12°C° 0 mm 6 m/s 747 mmHg 91%
    07:00 -11°C° 0 mm 6 m/s 747 mmHg 90%
    08:00 -11°C° 0 mm 7 m/s 747 mmHg 89%
    09:00 -11°C° 0 mm 7 m/s 747 mmHg 88%
    10:00 -11°C° 0 mm 7 m/s 747 mmHg 88%
    11:00 -9°C° 0 mm 7 m/s 747 mmHg 85%
    12:00 -8°C° 0 mm 8 m/s 747 mmHg 83%
    13:00 -8°C° 0 mm 8 m/s 747 mmHg 80%
    14:00 -8°C° 0 mm 8 m/s 747 mmHg 80%
    15:00 -7°C° 0 mm 8 m/s 747 mmHg 80%
    16:00 -7°C° 0 mm 8 m/s 747 mmHg 80%
    17:00 -7°C° 0 mm 8 m/s 747 mmHg 82%
    18:00 -8°C° 0 mm 7 m/s 747 mmHg 85%
    19:00 -8°C° 0 mm 7 m/s 748 mmHg 88%
    20:00 -7°C° 0.1 mm 7 m/s 747 mmHg 88%
    21:00 -7°C° 0.1 mm 7 m/s 747 mmHg 88%
    22:00 -7°C° 0.1 mm 7 m/s 747 mmHg 88%
    23:00 -6°C° 0.1 mm 7 m/s 747 mmHg 88%

    Mâine, 22 Februarie, Vineri

    Timp Temperatura Precipitaţii Vânt Presiune Umiditate
    00:00 -6°C° 0.1 mm 7 m/s 747 mmHg 89%
    01:00 -4°C° 0.1 mm 7 m/s 747 mmHg 89%
    02:00 -6°C° 0.1 mm 7 m/s 747 mmHg 89%
    03:00 -6°C° 0.1 mm 7 m/s 747 mmHg 88%
    04:00 -7°C° 0.1 mm 7 m/s 746 mmHg 88%
    05:00 -7°C° 0.2 mm 7 m/s 746 mmHg 88%
    06:00 -7°C° 0.2 mm 7 m/s 746 mmHg 87%
    07:00 -7°C° 0.2 mm 7 m/s 746 mmHg 87%
    08:00 -7°C° 0.1 mm 7 m/s 746 mmHg 86%
    09:00 -7°C° 0.1 mm 7 m/s 745 mmHg 86%
    10:00 -6°C° 0.1 mm 8 m/s 745 mmHg 85%
    11:00 -5°C° 0.1 mm 8 m/s 745 mmHg 85%
    12:00 -5°C° 0.1 mm 8 m/s 744 mmHg 85%
    13:00 -4°C° 0.1 mm 8 m/s 744 mmHg 85%
    14:00 -4°C° 0.5 mm 8 m/s 744 mmHg 86%
    15:00 -3°C° 0.5 mm 7 m/s 743 mmHg 86%
    16:00 -3°C° 0.5 mm 7 m/s 743 mmHg 87%
    17:00 -4°C° 0.3 mm 7 m/s 744 mmHg 87%
    18:00 -6°C° 0.3 mm 7 m/s 744 mmHg 86%
    19:00 -7°C° 0.3 mm 7 m/s 745 mmHg 86%
    20:00 -8°C° 0.1 mm 6 m/s 746 mmHg 87%
    21:00 -9°C° 0.1 mm 6 m/s 747 mmHg 88%
    22:00 -10°C° 0.1 mm 5 m/s 748 mmHg 89%
    23:00 -9°C° 0 mm 4 m/s 749 mmHg 89%

    Poimâine, 23 Februarie, Sâmbătă

    Timp Temperatura Precipitaţii Vânt Presiune Umiditate
    00:00 -10°C° 0 mm 4 m/s 750 mmHg 90%
    01:00 -11°C° 0 mm 4 m/s 751 mmHg 91%
    02:00 -11°C° 0 mm 4 m/s 751 mmHg 91%
    03:00 -11°C° 0 mm 4 m/s 751 mmHg 91%
    04:00 -12°C° 0 mm 5 m/s 752 mmHg 91%
    05:00 -11°C° 0 mm 4 m/s 752 mmHg 91%
    06:00 -12°C° 0 mm 4 m/s 752 mmHg 91%
    07:00 -12°C° 0 mm 4 m/s 752 mmHg 91%
    08:00 -11°C° 0 mm 4 m/s 753 mmHg 90%
    09:00 -12°C° 0 mm 5 m/s 753 mmHg 89%
    10:00 -11°C° 0 mm 5 m/s 753 mmHg 89%
    11:00 -11°C° 0.1 mm 5 m/s 753 mmHg 88%
    12:00 -10°C° 0.1 mm 5 m/s 753 mmHg 87%
    13:00 -10°C° 0.1 mm 6 m/s 754 mmHg 85%
    14:00 -10°C° 0.1 mm 6 m/s 754 mmHg 86%
    15:00 -11°C° 0.1 mm 6 m/s 754 mmHg 87%
    16:00 -11°C° 0.1 mm 5 m/s 754 mmHg 88%
    17:00 -12°C° 0.1 mm 5 m/s 754 mmHg 89%
    18:00 -11°C° 0.1 mm 4 m/s 754 mmHg 91%
    19:00 -12°C° 0.1 mm 4 m/s 755 mmHg 92%
    20:00 -12°C° 0.1 mm 4 m/s 755 mmHg 93%
    21:00 -12°C° 0.1 mm 3 m/s 755 mmHg 94%
    22:00 -13°C° 0.1 mm 3 m/s 755 mmHg 94%
    23:00 -13°C° 0.1 mm 3 m/s 755 mmHg 95%

    24 Februarie, Duminică

    Timp Temperatura Precipitaţii Vânt Presiune Umiditate
    00:00 -13°C° 0.1 mm 3 m/s 755 mmHg 95%
    01:00 -13°C° 0.1 mm 3 m/s 755 mmHg 95%
    02:00 -13°C° 0.1 mm 3 m/s 755 mmHg 95%
    03:00 -13°C° 0.1 mm 3 m/s 756 mmHg 95%
    04:00 -13°C° 0.1 mm 3 m/s 756 mmHg 95%
    05:00 -13°C° 0.1 mm 3 m/s 756 mmHg 95%
    06:00 -13°C° 0.1 mm 3 m/s 756 mmHg 95%
    07:00 -13°C° 0.1 mm 3 m/s 756 mmHg 95%
    08:00 -12°C° 0.1 mm 4 m/s 756 mmHg 94%
    09:00 -11°C° 0.1 mm 4 m/s 756 mmHg 94%
    10:00 -11°C° 0.1 mm 4 m/s 756 mmHg 93%
    11:00 -10°C° 0.1 mm 4 m/s 756 mmHg 92%
    12:00 -9°C° 0.1 mm 4 m/s 756 mmHg 91%
    13:00 -8°C° 0.1 mm 4 m/s 756 mmHg 90%
    14:00 -9°C° 0.1 mm 4 m/s 756 mmHg 90%
    15:00 -9°C° 0.1 mm 4 m/s 756 mmHg 89%
    16:00 -9°C° 0.1 mm 4 m/s 756 mmHg 89%
    17:00 -9°C° 0 mm 4 m/s 756 mmHg 90%
    18:00 -10°C° 0 mm 4 m/s 756 mmHg 91%
    19:00 -11°C° 0 mm 4 m/s 756 mmHg 92%
    20:00 -11°C° 0 mm 4 m/s 756 mmHg 93%
    21:00 -11°C° 0 mm 4 m/s 756 mmHg 93%
    22:00 -11°C° 0 mm 4 m/s 756 mmHg 94%
    23:00 -12°C° 0 mm 4 m/s 756 mmHg 94%

    25 Februarie, Luni

    Timp Temperatura Precipitaţii Vânt Presiune Umiditate
    00:00 -13°C° 0 mm 3 m/s 756 mmHg 94%
    01:00 -13°C° 0 mm 3 m/s 755 mmHg 95%
    02:00 -13°C° 0 mm 3 m/s 755 mmHg 95%
    03:00 -12°C° 0 mm 3 m/s 755 mmHg 95%
    04:00 -10°C° 0 mm 2 m/s 755 mmHg 95%
    05:00 -10°C° 0.1 mm 3 m/s 754 mmHg 95%
    06:00 -10°C° 0.1 mm 3 m/s 754 mmHg 95%
    07:00 -9°C° 0.1 mm 3 m/s 754 mmHg 95%
    08:00 -9°C° 0.2 mm 3 m/s 754 mmHg 94%
    09:00 -8°C° 0.2 mm 3 m/s 753 mmHg 94%
    10:00 -8°C° 0.2 mm 4 m/s 753 mmHg 93%
    11:00 -7°C° 0 mm 4 m/s 753 mmHg 92%
    12:00 -5°C° 0 mm 4 m/s 752 mmHg 90%
    13:00 -5°C° 0 mm 5 m/s 752 mmHg 88%
    14:00 -5°C° 0.1 mm 5 m/s 751 mmHg 88%
    15:00 -5°C° 0.1 mm 5 m/s 750 mmHg 87%
    16:00 -5°C° 0.1 mm 5 m/s 750 mmHg 87%
    17:00 -5°C° 0.2 mm 5 m/s 749 mmHg 88%
    18:00 -5°C° 0.2 mm 5 m/s 749 mmHg 89%
    19:00 -5°C° 0.2 mm 5 m/s 748 mmHg 90%
    20:00 -6°C° 0.2 mm 5 m/s 748 mmHg 90%
    21:00 -6°C° 0.2 mm 5 m/s 747 mmHg 90%
    22:00 -6°C° 0.2 mm 5 m/s 747 mmHg 90%
    23:00 -6°C° 0.1 mm 5 m/s 747 mmHg 90%

    26 Februarie, Marţi

    Timp Temperatura Precipitaţii Vânt Presiune Umiditate
    00:00 -6°C° 0.1 mm 5 m/s 747 mmHg 89%
    01:00 -5°C° 0.1 mm 5 m/s 746 mmHg 89%
    02:00 -6°C° 0 mm 5 m/s 746 mmHg 90%
    03:00 -7°C° 0 mm 5 m/s 746 mmHg 90%
    04:00 -8°C° 0 mm 5 m/s 745 mmHg 90%
    05:00 -10°C° 0.1 mm 5 m/s 745 mmHg 91%
    06:00 -11°C° 0.1 mm 5 m/s 745 mmHg 91%
    07:00 -12°C° 0.1 mm 5 m/s 744 mmHg 91%
    08:00 -12°C° 0.1 mm 5 m/s 744 mmHg 91%
    09:00 -11°C° 0.1 mm 5 m/s 744 mmHg 91%
    10:00 -11°C° 0.1 mm 6 m/s 744 mmHg 91%
    11:00 -11°C° 0.1 mm 6 m/s 743 mmHg 90%
    12:00 -11°C° 0.1 mm 5 m/s 743 mmHg 90%
    13:00 -10°C° 0.1 mm 5 m/s 743 mmHg 90%
    14:00 -10°C° 0.1 mm 5 m/s 742 mmHg 90%
    15:00 -10°C° 0.1 mm 5 m/s 742 mmHg 90%
    16:00 -10°C° 0.1 mm 5 m/s 742 mmHg 90%
    17:00 -10°C° 0.1 mm 5 m/s 742 mmHg 91%
    18:00 -10°C° 0.1 mm 4 m/s 742 mmHg 92%
    19:00 -10°C° 0.1 mm 4 m/s 742 mmHg 92%
    20:00 -11°C° 0.1 mm 4 m/s 742 mmHg 93%
    21:00 -11°C° 0.1 mm 4 m/s 742 mmHg 94%
    22:00 -10°C° 0.1 mm 3 m/s 741 mmHg 95%
    23:00 -12°C° 0 mm 3 m/s 741 mmHg 95%
    Arată mai mult